GFSNE_prec_precacc12_156.txt.gz
Total_Precipitation_Accumulation
0.15 0.15 0.20 0.14 0.13 0.13 0.15 0.23 0.30 0.17 0.12 0.09 0.24 0.37 0.44 0.51 0.34 0.35 0.37 0.34 0.33 0.29 0.26 0.20 0.14 0.12 0.10 0.07 0.02 0.00 0.00 0.00 0.01 0.00 0.00 0.00 0.00 0.00
0.10 0.12 0.15 0.21 0.19 0.18 0.20 0.27 0.42 0.43 0.37 0.16 0.13 0.14 0.18 0.30 0.39 0.54 0.45 0.32 0.34 0.43 0.49 0.47 0.29 0.20 0.16 0.12 0.08 0.03 0.00 0.00 0.00 0.01 0.00 0.00 0.00 0.00
0.12 0.12 0.11 0.12 0.18 0.30 0.29 0.21 0.28 0.49 0.51 0.42 0.49 0.40 0.33 0.27 0.27 0.39 0.45 0.48 0.51 0.54 0.58 0.66 0.62 0.40 0.21 0.14 0.10 0.06 0.03 0.01 0.00 0.00 0.00 0.00 0.00 0.00
0.20 0.22 0.27 0.25 0.22 0.12 0.17 0.36 0.28 0.22 0.42 0.52 0.79 0.97 0.81 0.64 0.56 0.52 0.48 0.48 0.52 0.58 0.48 0.43 0.42 0.38 0.32 0.20 0.15 0.13 0.12 0.06 0.02 0.00 0.00 0.00 0.00 0.00
0.37 0.42 0.43 0.41 0.40 0.51 0.35 0.16 0.21 0.23 0.22 0.33 0.65 1.01 1.30 1.02 1.03 1.24 1.22 1.03 1.09 0.83 0.62 0.54 0.53 0.58 0.54 0.42 0.35 0.34 0.32 0.25 0.18 0.13 0.08 0.05 0.02 0.01
0.19 0.23 0.24 0.28 0.37 0.40 0.48 0.49 0.27 0.16 0.16 0.16 0.31 0.73 0.98 1.18 1.03 1.15 1.61 1.53 1.24 0.99 0.79 0.81 0.82 0.63 0.57 0.48 0.41 0.30 0.26 0.24 0.23 0.22 0.19 0.17 0.15 0.13
0.03 0.03 0.06 0.07 0.11 0.20 0.23 0.25 0.29 0.21 0.13 0.13 0.17 0.41 0.64 0.64 0.76 0.91 1.19 1.35 1.30 1.15 0.92 0.74 0.70 0.82 0.76 0.57 0.49 0.45 0.35 0.28 0.21 0.22 0.23 0.23 0.24 0.25
0.08 0.06 0.03 0.03 0.04 0.09 0.15 0.16 0.20 0.24 0.17 0.12 0.18 0.21 0.30 0.41 0.48 0.49 0.69 0.93 1.02 1.00 1.00 0.92 0.86 0.76 0.78 0.80 0.87 0.70 0.50 0.44 0.29 0.20 0.16 0.14 0.13 0.14
0.05 0.07 0.12 0.13 0.09 0.11 0.18 0.20 0.17 0.16 0.27 0.27 0.20 0.25 0.29 0.31 0.32 0.41 0.41 0.59 0.89 1.06 1.04 0.95 0.82 0.84 0.80 0.71 0.72 0.76 0.75 0.63 0.45 0.27 0.20 0.17 0.15 0.13
0.03 0.05 0.05 0.06 0.09 0.10 0.10 0.15 0.23 0.27 0.26 0.27 0.37 0.47 0.44 0.37 0.33 0.33 0.30 0.35 0.40 0.54 0.82 1.14 1.16 1.03 0.87 0.82 0.83 0.76 0.75 0.78 0.69 0.45 0.29 0.24 0.20 0.18
0.02 0.02 0.02 0.03 0.04 0.05 0.05 0.04 0.04 0.07 0.11 0.14 0.16 0.20 0.29 0.31 0.28 0.28 0.38 0.40 0.47 0.49 0.50 0.62 0.78 1.06 1.12 0.99 0.85 0.84 0.92 0.87 0.78 0.63 0.47 0.37 0.29 0.23
0.01 0.02 0.01 0.01 0.01 0.02 0.03 0.03 0.05 0.04 0.03 0.04 0.04 0.03 0.02 0.03 0.05 0.08 0.13 0.20 0.35 0.45 0.45 0.53 0.56 0.66 0.78 0.91 0.97 0.86 0.86 0.92 0.88 0.76 0.54 0.41 0.37 0.23
0.00 0.00 0.00 0.00 0.00 0.01 0.01 0.01 0.02 0.01 0.01 0.01 0.01 0.02 0.01 0.01 0.01 0.01 0.03 0.04 0.04 0.09 0.10 0.17 0.20 0.24 0.34 0.37 0.42 0.44 0.46 0.55 0.64 0.65 0.56 0.42 0.32 0.29
0.01 0.00 0.00 0.00 0.00 0.00 0.00 0.00 0.00 0.00 0.00 0.00 0.00 0.00 0.00 0.00 0.00 0.00 0.00 0.01 0.01 0.01 0.01 0.01 0.03 0.05 0.07 0.07 0.07 0.07 0.12 0.13 0.13 0.18 0.23 0.24 0.24 0.23
0.01 0.00 0.00 0.00 0.00 0.00 0.00 0.00 0.00 0.00 0.00 0.00 0.00 0.00 0.00 0.00 0.00 0.00 0.00 0.00 0.00 0.00 0.00 0.00 0.00 0.00 0.01 0.02 0.03 0.02 0.03 0.02 0.02 0.02 0.04 0.04 0.03 0.03
0.01 0.00 0.00 0.00 0.00 0.00 0.00 0.00 0.00 0.00 0.00 0.00 0.00 0.00 0.00 0.00 0.00 0.00 0.00 0.00 0.00 0.00 0.00 0.00 0.00 0.00 0.00 0.00 0.01 0.01 0.02 0.01 0.00 0.00 0.01 0.00 0.00 0.00
0.00 0.00 0.00 0.00 0.00 0.00 0.00 0.00 0.00 0.00 0.00 0.00 0.00 0.00 0.00 0.00 0.00 0.00 0.00 0.00 0.00 0.00 0.00 0.00 0.00 0.00 0.00 0.00 0.00 0.02 0.02 0.00 0.01 0.00 0.00 0.00 0.00 0.01
0.00 0.00 0.00 0.00 0.00 0.00 0.00 0.01 0.00 0.00 0.00 0.00 0.00 0.00 0.00 0.00 0.00 0.00 0.00 0.00 0.00 0.00 0.00 0.00 0.00 0.00 0.00 0.00 0.00 0.01 0.00 0.00 0.00 0.00 0.00 0.01 0.01 0.01
0.00 0.00 0.00 0.01 0.00 0.00 0.00 0.01 0.02 0.01 0.00 0.00 0.00 0.00 0.00 0.00 0.00 0.00 0.00 0.00 0.00 0.00 0.00 0.00 0.00 0.00 0.00 0.00 0.00 0.00 0.00 0.00 0.00 0.00 0.00 0.01 0.02 0.01
0.00 0.00 0.00 0.00 0.00 0.01 0.01 0.01 0.03 0.02 0.02 0.01 0.00 0.00 0.00 0.00 0.00 0.00 0.00 0.00 0.00 0.00 0.00 0.00 0.00 0.00 0.00 0.00 0.00 0.00 0.00 0.01 0.02 0.01 0.01 0.01 0.01 0.00
0.00 0.00 0.00 0.00 0.01 0.01 0.02 0.02 0.03 0.02 0.02 0.03 0.00 0.00 0.00 0.00 0.00 0.00 0.00 0.00 0.00 0.00 0.00 0.00 0.00 0.00 0.00 0.00 0.00 0.00 0.01 0.01 0.01 0.01 0.00 0.01 0.00 0.02
0.00 0.00 0.00 0.00 0.00 0.00 0.01 0.02 0.01 0.01 0.02 0.04 0.01 0.00 0.00 0.00 0.00 0.00 0.00 0.00 0.00 0.00 0.00 0.00 0.00 0.00 0.00 0.00 0.00 0.00 0.00 0.01 0.01 0.00 0.00 0.01 0.04 0.05
0.00 0.00 0.00 0.00 0.00 0.00 0.00 0.01 0.01 0.01 0.02 0.06 0.02 0.00 0.00 0.00 0.00 0.00 0.00 0.00 0.00 0.00 0.00 0.00 0.00 0.00 0.00 0.00 0.00 0.00 0.00 0.01 0.01 0.02 0.07 0.01 0.00 0.00

GFSNE_prec_precacc12_159.txt.gz
Total_Precipitation_Accumulation
0.07 0.07 0.09 0.06 0.09 0.11 0.14 0.19 0.24 0.11 0.02 0.02 0.15 0.34 0.43 0.53 0.37 0.40 0.41 0.39 0.42 0.37 0.33 0.28 0.31 0.33 0.27 0.25 0.19 0.10 0.04 0.03 0.06 0.05 0.02 0.00 0.00 0.00
0.05 0.04 0.06 0.05 0.07 0.10 0.14 0.16 0.21 0.27 0.23 0.06 0.05 0.10 0.17 0.31 0.40 0.56 0.49 0.38 0.43 0.52 0.59 0.57 0.38 0.30 0.27 0.25 0.26 0.19 0.11 0.05 0.05 0.07 0.05 0.02 0.01 0.00
0.07 0.08 0.06 0.07 0.11 0.23 0.21 0.12 0.15 0.22 0.23 0.16 0.17 0.21 0.27 0.23 0.22 0.33 0.43 0.49 0.53 0.59 0.64 0.78 0.74 0.57 0.45 0.42 0.31 0.21 0.16 0.13 0.09 0.07 0.07 0.05 0.03 0.01
0.16 0.20 0.26 0.23 0.21 0.11 0.16 0.34 0.22 0.14 0.19 0.14 0.20 0.28 0.31 0.54 0.53 0.52 0.47 0.45 0.49 0.56 0.47 0.59 0.69 0.59 0.61 0.70 0.77 0.55 0.35 0.26 0.18 0.10 0.06 0.06 0.05 0.04
0.34 0.41 0.43 0.41 0.40 0.52 0.38 0.20 0.23 0.25 0.21 0.17 0.17 0.24 0.39 0.56 0.94 1.23 1.17 0.96 1.00 0.77 0.54 0.50 0.56 0.67 0.65 0.61 0.62 0.57 0.46 0.40 0.36 0.30 0.19 0.11 0.07 0.06
0.19 0.23 0.25 0.28 0.38 0.41 0.52 0.65 0.44 0.26 0.26 0.23 0.18 0.18 0.19 0.33 0.47 0.90 1.54 1.45 1.19 0.98 0.80 0.81 0.82 0.64 0.58 0.52 0.50 0.42 0.37 0.34 0.30 0.29 0.28 0.26 0.23 0.20
0.03 0.03 0.06 0.07 0.11 0.19 0.25 0.34 0.44 0.42 0.35 0.30 0.24 0.18 0.18 0.15 0.27 0.50 1.03 1.30 1.25 1.12 0.89 0.71 0.68 0.82 0.77 0.57 0.48 0.46 0.43 0.38 0.36 0.31 0.29 0.27 0.29 0.32
0.02 0.02 0.01 0.01 0.02 0.04 0.06 0.14 0.23 0.35 0.29 0.26 0.29 0.25 0.15 0.11 0.14 0.19 0.47 0.76 0.86 0.90 0.94 0.90 0.84 0.74 0.78 0.80 0.84 0.69 0.55 0.58 0.49 0.41 0.32 0.28 0.20 0.21
0.00 0.00 0.00 0.01 0.01 0.02 0.03 0.02 0.04 0.11 0.26 0.30 0.23 0.22 0.26 0.24 0.15 0.13 0.24 0.48 0.72 0.92 0.95 0.89 0.78 0.79 0.78 0.69 0.67 0.71 0.75 0.69 0.64 0.52 0.42 0.35 0.28 0.22
0.00 0.00 0.00 0.00 0.00 0.00 0.00 0.01 0.04 0.10 0.15 0.25 0.37 0.42 0.39 0.31 0.30 0.30 0.22 0.23 0.27 0.43 0.70 0.98 1.01 0.94 0.77 0.74 0.76 0.71 0.68 0.74 0.77 0.72 0.59 0.47 0.40 0.33
0.00 0.00 0.00 0.00 0.01 0.01 0.01 0.00 0.01 0.03 0.07 0.10 0.13 0.16 0.24 0.26 0.23 0.20 0.29 0.30 0.34 0.36 0.36 0.47 0.65 0.94 1.03 0.92 0.79 0.78 0.84 0.79 0.70 0.68 0.73 0.62 0.50 0.39
0.00 0.00 0.00 0.00 0.00 0.00 0.01 0.01 0.02 0.03 0.02 0.02 0.03 0.02 0.02 0.03 0.05 0.08 0.13 0.20 0.34 0.42 0.43 0.47 0.47 0.53 0.61 0.75 0.88 0.83 0.85 0.90 0.86 0.76 0.62 0.64 0.64 0.47
0.00 0.00 0.00 0.00 0.00 0.00 0.00 0.01 0.02 0.01 0.00 0.00 0.01 0.02 0.01 0.01 0.01 0.01 0.03 0.03 0.04 0.09 0.11 0.18 0.21 0.25 0.34 0.36 0.43 0.44 0.48 0.60 0.71 0.74 0.71 0.67 0.59 0.61
0.01 0.00 0.00 0.00 0.00 0.00 0.00 0.00 0.00 0.00 0.00 0.00 0.00 0.00 0.00 0.00 0.00 0.00 0.00 0.01 0.01 0.01 0.01 0.01 0.03 0.05 0.07 0.07 0.08 0.08 0.14 0.14 0.16 0.24 0.37 0.49 0.56 0.59
0.01 0.00 0.00 0.00 0.00 0.00 0.00 0.00 0.00 0.00 0.00 0.00 0.00 0.00 0.00 0.00 0.00 0.00 0.00 0.00 0.00 0.00 0.00 0.00 0.00 0.00 0.01 0.02 0.02 0.02 0.03 0.02 0.02 0.04 0.08 0.14 0.20 0.24
0.01 0.00 0.00 0.00 0.00 0.00 0.00 0.00 0.00 0.00 0.00 0.00 0.00 0.00 0.00 0.00 0.00 0.00 0.00 0.00 0.00 0.00 0.00 0.00 0.00 0.00 0.00 0.00 0.00 0.01 0.01 0.01 0.00 0.00 0.02 0.02 0.04 0.06
0.00 0.00 0.00 0.00 0.00 0.00 0.00 0.00 0.00 0.00 0.00 0.00 0.00 0.00 0.00 0.00 0.00 0.00 0.00 0.00 0.00 0.00 0.00 0.00 0.00 0.00 0.00 0.00 0.00 0.02 0.01 0.00 0.00 0.00 0.00 0.01 0.00 0.01
0.00 0.00 0.00 0.00 0.00 0.00 0.00 0.01 0.00 0.01 0.00 0.00 0.00 0.00 0.00 0.00 0.00 0.00 0.00 0.00 0.00 0.00 0.00 0.00 0.00 0.00 0.00 0.00 0.00 0.00 0.00 0.00 0.00 0.00 0.00 0.01 0.00 0.00
0.00 0.00 0.00 0.01 0.00 0.00 0.00 0.01 0.02 0.02 0.01 0.00 0.00 0.00 0.00 0.00 0.00 0.00 0.00 0.00 0.00 0.00 0.00 0.00 0.00 0.00 0.00 0.00 0.00 0.00 0.00 0.00 0.00 0.00 0.00 0.00 0.00 0.00
0.00 0.00 0.00 0.00 0.00 0.01 0.01 0.01 0.02 0.02 0.02 0.01 0.00 0.00 0.00 0.00 0.00 0.00 0.00 0.00 0.00 0.00 0.00 0.00 0.00 0.00 0.00 0.00 0.00 0.00 0.00 0.00 0.01 0.01 0.00 0.00 0.00 0.00
0.00 0.00 0.00 0.00 0.00 0.00 0.01 0.01 0.02 0.02 0.03 0.03 0.00 0.00 0.00 0.00 0.00 0.00 0.00 0.00 0.00 0.00 0.00 0.00 0.00 0.00 0.00 0.00 0.00 0.00 0.00 0.00 0.00 0.01 0.00 0.00 0.00 0.00
0.00 0.00 0.00 0.00 0.00 0.00 0.00 0.00 0.00 0.01 0.02 0.04 0.01 0.00 0.00 0.00 0.00 0.00 0.00 0.00 0.00 0.00 0.00 0.00 0.00 0.00 0.00 0.00 0.00 0.00 0.00 0.00 0.00 0.00 0.00 0.01 0.05 0.04
0.00 0.00 0.00 0.00 0.00 0.00 0.00 0.00 0.00 0.00 0.02 0.06 0.02 0.00 0.00 0.00 0.00 0.00 0.00 0.00 0.00 0.00 0.00 0.00 0.00 0.00 0.00 0.00 0.00 0.00 0.00 0.00 0.00 0.01 0.01 0.00 0.00 0.00

GFSNE_prec_precacc12_162.txt.gz
Total_Precipitation_Accumulation
0.05 0.04 0.06 0.05 0.05 0.05 0.06 0.11 0.22 0.11 0.02 0.00 0.02 0.07 0.12 0.16 0.18 0.30 0.36 0.39 0.42 0.37 0.36 0.32 0.34 0.42 0.60 0.82 0.76 0.40 0.14 0.12 0.12 0.11 0.06 0.03 0.12 0.09
0.03 0.02 0.03 0.02 0.01 0.02 0.03 0.06 0.14 0.25 0.23 0.06 0.03 0.04 0.06 0.13 0.20 0.38 0.41 0.39 0.42 0.53 0.61 0.62 0.43 0.33 0.29 0.30 0.40 0.41 0.24 0.12 0.09 0.11 0.10 0.06 0.03 0.08
0.02 0.05 0.04 0.05 0.07 0.05 0.04 0.03 0.04 0.11 0.14 0.13 0.11 0.10 0.12 0.05 0.06 0.17 0.29 0.42 0.50 0.56 0.65 0.82 0.83 0.67 0.55 0.48 0.36 0.32 0.32 0.28 0.19 0.13 0.11 0.09 0.07 0.04
0.05 0.11 0.16 0.17 0.13 0.07 0.07 0.13 0.16 0.08 0.08 0.07 0.10 0.15 0.14 0.12 0.12 0.19 0.28 0.26 0.39 0.47 0.43 0.60 0.74 0.66 0.69 0.81 0.84 0.88 0.73 0.65 0.58 0.39 0.20 0.09 0.08 0.07
0.14 0.21 0.31 0.32 0.36 0.44 0.37 0.19 0.22 0.24 0.17 0.10 0.07 0.07 0.17 0.20 0.28 0.43 0.40 0.38 0.67 0.63 0.39 0.38 0.51 0.69 0.66 0.62 0.60 0.63 0.63 0.57 0.62 0.76 0.73 0.40 0.13 0.09
0.11 0.17 0.20 0.25 0.37 0.41 0.53 0.66 0.45 0.26 0.26 0.23 0.13 0.11 0.09 0.20 0.24 0.37 0.62 0.52 0.57 0.72 0.68 0.69 0.75 0.59 0.59 0.52 0.48 0.43 0.40 0.43 0.38 0.35 0.41 0.52 0.61 0.45
0.02 0.02 0.04 0.06 0.10 0.19 0.25 0.35 0.45 0.43 0.36 0.33 0.30 0.22 0.19 0.12 0.31 0.37 0.33 0.46 0.58 0.62 0.68 0.62 0.64 0.81 0.74 0.55 0.46 0.44 0.41 0.36 0.40 0.38 0.35 0.34 0.36 0.46
0.01 0.00 0.00 0.00 0.01 0.03 0.06 0.14 0.24 0.35 0.31 0.30 0.43 0.43 0.33 0.28 0.21 0.31 0.34 0.31 0.33 0.47 0.71 0.78 0.77 0.73 0.78 0.80 0.82 0.66 0.52 0.55 0.48 0.45 0.40 0.39 0.34 0.25
0.00 0.00 0.00 0.00 0.00 0.00 0.01 0.01 0.03 0.09 0.23 0.26 0.23 0.33 0.42 0.41 0.32 0.23 0.29 0.36 0.35 0.33 0.37 0.62 0.75 0.79 0.79 0.68 0.64 0.69 0.73 0.68 0.62 0.51 0.43 0.39 0.37 0.38
0.00 0.00 0.00 0.00 0.00 0.00 0.00 0.00 0.00 0.02 0.05 0.12 0.20 0.24 0.32 0.35 0.34 0.36 0.26 0.25 0.26 0.31 0.34 0.49 0.57 0.69 0.64 0.67 0.66 0.66 0.62 0.68 0.71 0.67 0.54 0.44 0.38 0.35
0.00 0.00 0.00 0.00 0.00 0.00 0.00 0.00 0.00 0.00 0.00 0.01 0.04 0.06 0.08 0.14 0.23 0.24 0.27 0.29 0.30 0.33 0.32 0.41 0.54 0.73 0.80 0.77 0.67 0.68 0.77 0.73 0.66 0.65 0.69 0.58 0.47 0.38
0.00 0.00 0.00 0.00 0.00 0.00 0.00 0.00 0.00 0.00 0.00 0.00 0.00 0.01 0.01 0.02 0.05 0.10 0.16 0.23 0.33 0.37 0.39 0.42 0.42 0.48 0.53 0.64 0.74 0.67 0.75 0.82 0.81 0.73 0.60 0.62 0.64 0.49
0.00 0.00 0.00 0.00 0.00 0.00 0.00 0.00 0.00 0.00 0.00 0.00 0.00 0.00 0.00 0.00 0.01 0.01 0.03 0.04 0.06 0.12 0.14 0.19 0.21 0.26 0.33 0.35 0.40 0.39 0.43 0.54 0.64 0.71 0.69 0.66 0.59 0.63
0.01 0.00 0.00 0.00 0.00 0.00 0.00 0.00 0.00 0.00 0.00 0.00 0.00 0.00 0.00 0.00 0.00 0.00 0.00 0.00 0.00 0.01 0.01 0.01 0.03 0.05 0.07 0.07 0.07 0.08 0.14 0.14 0.16 0.24 0.37 0.49 0.56 0.60
0.01 0.00 0.00 0.00 0.00 0.00 0.00 0.00 0.00 0.00 0.00 0.00 0.00 0.00 0.00 0.00 0.00 0.00 0.00 0.00 0.00 0.00 0.00 0.00 0.00 0.00 0.01 0.01 0.02 0.02 0.02 0.02 0.01 0.04 0.08 0.15 0.21 0.24
0.00 0.00 0.00 0.00 0.00 0.00 0.00 0.00 0.00 0.00 0.00 0.00 0.00 0.00 0.00 0.00 0.00 0.00 0.00 0.00 0.00 0.00 0.00 0.00 0.00 0.00 0.00 0.00 0.00 0.01 0.01 0.00 0.00 0.00 0.01 0.03 0.05 0.06
0.00 0.00 0.00 0.00 0.00 0.00 0.00 0.00 0.00 0.00 0.00 0.00 0.00 0.00 0.00 0.00 0.00 0.00 0.00 0.00 0.00 0.00 0.00 0.00 0.00 0.00 0.00 0.00 0.00 0.00 0.00 0.00 0.00 0.00 0.00 0.01 0.00 0.00
0.00 0.00 0.00 0.00 0.00 0.01 0.00 0.01 0.01 0.01 0.00 0.00 0.00 0.00 0.00 0.00 0.00 0.00 0.00 0.00 0.00 0.00 0.00 0.00 0.00 0.00 0.00 0.00 0.00 0.00 0.00 0.00 0.00 0.00 0.00 0.01 0.00 0.00
0.00 0.00 0.00 0.00 0.00 0.00 0.00 0.01 0.02 0.02 0.01 0.00 0.00 0.00 0.00 0.00 0.00 0.00 0.00 0.00 0.00 0.00 0.00 0.00 0.00 0.00 0.00 0.00 0.00 0.00 0.00 0.00 0.00 0.00 0.00 0.00 0.00 0.00
0.00 0.00 0.00 0.00 0.00 0.00 0.00 0.00 0.02 0.01 0.02 0.00 0.00 0.00 0.00 0.00 0.00 0.00 0.00 0.00 0.00 0.00 0.00 0.00 0.00 0.00 0.00 0.00 0.00 0.00 0.00 0.00 0.00 0.00 0.00 0.00 0.00 0.00
0.00 0.00 0.00 0.00 0.00 0.00 0.00 0.00 0.00 0.01 0.02 0.03 0.00 0.00 0.00 0.00 0.00 0.00 0.00 0.00 0.00 0.00 0.00 0.00 0.00 0.00 0.00 0.00 0.00 0.00 0.00 0.00 0.00 0.00 0.00 0.01 0.00 0.00
0.00 0.00 0.00 0.00 0.00 0.00 0.00 0.00 0.00 0.00 0.00 0.03 0.01 0.00 0.00 0.00 0.00 0.00 0.00 0.00 0.00 0.00 0.00 0.00 0.00 0.00 0.00 0.00 0.00 0.00 0.00 0.00 0.00 0.00 0.00 0.01 0.05 0.04
0.00 0.00 0.00 0.00 0.00 0.00 0.00 0.00 0.00 0.00 0.01 0.03 0.01 0.00 0.00 0.00 0.00 0.00 0.00 0.00 0.00 0.00 0.00 0.00 0.00 0.00 0.00 0.00 0.00 0.00 0.00 0.00 0.00 0.00 0.00 0.00 0.00 0.00

GFSNE_prec_precacc12_165.txt.gz
Total_Precipitation_Accumulation
0.01 0.01 0.02 0.02 0.03 0.04 0.05 0.08 0.10 0.06 0.01 0.00 0.00 0.02 0.07 0.09 0.10 0.12 0.15 0.20 0.22 0.21 0.27 0.30 0.34 0.43 0.61 0.90 1.12 1.09 0.86 0.54 0.30 0.22 0.13 0.07 0.17 0.27
0.00 0.00 0.01 0.01 0.01 0.01 0.02 0.04 0.07 0.09 0.05 0.02 0.02 0.03 0.04 0.09 0.16 0.20 0.24 0.27 0.29 0.39 0.46 0.47 0.41 0.35 0.30 0.32 0.44 0.53 0.62 0.47 0.29 0.21 0.16 0.10 0.06 0.15
0.00 0.01 0.01 0.01 0.01 0.01 0.01 0.03 0.03 0.06 0.06 0.04 0.08 0.09 0.11 0.04 0.05 0.09 0.10 0.18 0.31 0.36 0.47 0.64 0.72 0.68 0.58 0.51 0.38 0.33 0.34 0.37 0.34 0.25 0.18 0.14 0.09 0.06
0.01 0.02 0.04 0.06 0.05 0.03 0.04 0.09 0.10 0.06 0.06 0.06 0.08 0.12 0.11 0.11 0.11 0.14 0.10 0.07 0.05 0.12 0.15 0.42 0.65 0.61 0.71 0.85 0.88 0.88 0.72 0.65 0.61 0.45 0.29 0.17 0.13 0.10
0.03 0.04 0.08 0.14 0.17 0.26 0.20 0.10 0.11 0.15 0.13 0.07 0.07 0.06 0.14 0.18 0.20 0.21 0.20 0.15 0.07 0.12 0.08 0.15 0.37 0.58 0.58 0.62 0.61 0.58 0.56 0.50 0.57 0.73 0.78 0.66 0.39 0.18
0.01 0.03 0.05 0.10 0.20 0.28 0.37 0.43 0.33 0.21 0.21 0.19 0.12 0.11 0.09 0.19 0.24 0.31 0.36 0.27 0.18 0.12 0.12 0.14 0.27 0.38 0.47 0.49 0.53 0.50 0.40 0.39 0.35 0.31 0.38 0.59 0.85 0.82
0.00 0.00 0.01 0.02 0.06 0.17 0.25 0.34 0.42 0.40 0.35 0.33 0.30 0.22 0.20 0.15 0.30 0.37 0.35 0.41 0.41 0.29 0.14 0.06 0.10 0.32 0.47 0.43 0.48 0.48 0.50 0.41 0.39 0.33 0.30 0.32 0.43 0.60
0.00 0.00 0.00 0.00 0.00 0.01 0.05 0.14 0.24 0.35 0.31 0.30 0.43 0.43 0.34 0.31 0.25 0.39 0.45 0.31 0.31 0.42 0.49 0.29 0.11 0.13 0.28 0.51 0.67 0.67 0.53 0.53 0.48 0.48 0.37 0.34 0.32 0.30
0.00 0.00 0.00 0.00 0.00 0.00 0.00 0.01 0.03 0.09 0.23 0.26 0.23 0.33 0.43 0.45 0.40 0.27 0.38 0.54 0.44 0.34 0.36 0.49 0.47 0.33 0.21 0.29 0.51 0.66 0.70 0.65 0.59 0.48 0.40 0.36 0.35 0.36
0.00 0.00 0.00 0.00 0.00 0.00 0.00 0.00 0.00 0.01 0.04 0.11 0.18 0.21 0.30 0.35 0.37 0.43 0.33 0.36 0.48 0.44 0.31 0.29 0.29 0.44 0.47 0.46 0.56 0.63 0.59 0.65 0.68 0.63 0.51 0.41 0.36 0.33
0.00 0.00 0.00 0.00 0.00 0.00 0.00 0.00 0.00 0.00 0.00 0.01 0.03 0.05 0.05 0.06 0.15 0.19 0.25 0.26 0.27 0.33 0.29 0.30 0.30 0.33 0.25 0.36 0.53 0.59 0.69 0.66 0.60 0.59 0.64 0.54 0.42 0.34
0.00 0.00 0.00 0.00 0.00 0.00 0.00 0.00 0.00 0.00 0.00 0.00 0.00 0.00 0.01 0.01 0.01 0.06 0.13 0.18 0.25 0.26 0.28 0.27 0.25 0.26 0.28 0.27 0.31 0.36 0.47 0.56 0.60 0.57 0.50 0.55 0.58 0.45
0.00 0.00 0.00 0.00 0.00 0.00 0.00 0.00 0.00 0.00 0.00 0.00 0.00 0.00 0.00 0.00 0.01 0.01 0.02 0.03 0.06 0.11 0.12 0.15 0.15 0.17 0.22 0.25 0.27 0.31 0.35 0.42 0.53 0.59 0.61 0.61 0.56 0.59
0.01 0.00 0.00 0.00 0.00 0.00 0.00 0.00 0.00 0.00 0.00 0.00 0.00 0.00 0.00 0.00 0.00 0.00 0.00 0.00 0.01 0.01 0.01 0.01 0.03 0.04 0.05 0.05 0.06 0.07 0.13 0.13 0.16 0.24 0.37 0.49 0.55 0.59
0.00 0.00 0.00 0.00 0.00 0.00 0.00 0.00 0.00 0.00 0.00 0.00 0.00 0.00 0.00 0.00 0.00 0.00 0.00 0.00 0.00 0.00 0.00 0.00 0.00 0.00 0.01 0.01 0.02 0.02 0.02 0.02 0.01 0.04 0.08 0.15 0.21 0.24
0.00 0.00 0.00 0.00 0.00 0.00 0.00 0.00 0.00 0.00 0.00 0.00 0.00 0.00 0.00 0.00 0.00 0.00 0.00 0.00 0.00 0.00 0.00 0.00 0.00 0.00 0.00 0.00 0.00 0.00 0.00 0.00 0.00 0.00 0.01 0.03 0.05 0.06
0.00 0.00 0.00 0.00 0.00 0.00 0.00 0.00 0.00 0.00 0.00 0.00 0.00 0.00 0.00 0.00 0.00 0.00 0.00 0.00 0.00 0.00 0.00 0.00 0.00 0.00 0.00 0.00 0.00 0.00 0.00 0.00 0.00 0.00 0.00 0.01 0.00 0.00
0.00 0.00 0.00 0.00 0.00 0.00 0.00 0.00 0.01 0.01 0.00 0.00 0.00 0.00 0.00 0.00 0.00 0.00 0.00 0.00 0.00 0.00 0.00 0.00 0.00 0.00 0.00 0.00 0.00 0.00 0.00 0.00 0.00 0.00 0.00 0.01 0.00 0.00
0.00 0.00 0.00 0.00 0.00 0.00 0.00 0.00 0.01 0.02 0.01 0.00 0.00 0.00 0.00 0.00 0.00 0.00 0.00 0.00 0.00 0.00 0.00 0.00 0.00 0.00 0.00 0.00 0.00 0.00 0.00 0.00 0.00 0.00 0.00 0.00 0.00 0.00
0.00 0.00 0.00 0.00 0.00 0.00 0.00 0.00 0.00 0.00 0.01 0.00 0.00 0.00 0.00 0.00 0.00 0.00 0.00 0.00 0.00 0.00 0.00 0.00 0.00 0.00 0.00 0.00 0.00 0.00 0.00 0.00 0.00 0.00 0.00 0.00 0.00 0.00
0.00 0.00 0.00 0.00 0.00 0.00 0.00 0.00 0.00 0.00 0.01 0.01 0.00 0.00 0.00 0.00 0.00 0.00 0.00 0.00 0.00 0.00 0.00 0.00 0.00 0.00 0.00 0.00 0.00 0.00 0.00 0.00 0.00 0.00 0.00 0.00 0.00 0.00
0.00 0.00 0.00 0.00 0.00 0.00 0.00 0.00 0.00 0.00 0.00 0.01 0.00 0.00 0.00 0.00 0.00 0.00 0.00 0.00 0.00 0.00 0.00 0.00 0.00 0.00 0.00 0.00 0.00 0.00 0.00 0.00 0.00 0.00 0.00 0.01 0.04 0.04
0.00 0.00 0.00 0.00 0.00 0.00 0.00 0.00 0.00 0.00 0.01 0.01 0.00 0.00 0.00 0.00 0.00 0.00 0.00 0.00 0.00 0.00 0.00 0.00 0.00 0.00 0.00 0.00 0.00 0.00 0.00 0.00 0.00 0.00 0.00 0.00 0.00 0.00

GFSNE_prec_precacc12_171.txt.gz
Total_Precipitation_Accumulation
0.00 0.00 0.00 0.01 0.00 0.01 0.02 0.04 0.08 0.05 0.01 0.00 0.00 0.00 0.00 0.00 0.02 0.01 0.02 0.04 0.01 0.00 0.03 0.05 0.04 0.10 0.34 0.68 1.07 1.34 1.50 1.75 1.66 0.92 0.62 0.83 0.70 0.56
0.00 0.00 0.00 0.00 0.00 0.00 0.01 0.01 0.03 0.06 0.05 0.00 0.00 0.00 0.00 0.00 0.03 0.03 0.07 0.08 0.04 0.02 0.04 0.06 0.07 0.06 0.05 0.08 0.21 0.39 0.56 0.60 0.91 0.93 0.77 0.58 0.80 0.85
0.00 0.00 0.00 0.00 0.00 0.00 0.00 0.01 0.01 0.03 0.03 0.00 0.00 0.00 0.01 0.01 0.05 0.07 0.06 0.03 0.04 0.05 0.04 0.07 0.12 0.14 0.15 0.10 0.10 0.16 0.23 0.31 0.31 0.32 0.37 0.36 0.31 0.63
0.00 0.00 0.00 0.00 0.00 0.00 0.01 0.01 0.01 0.01 0.02 0.02 0.00 0.00 0.02 0.03 0.06 0.11 0.09 0.07 0.04 0.08 0.06 0.08 0.12 0.14 0.15 0.19 0.17 0.41 0.46 0.50 0.53 0.42 0.28 0.19 0.16 0.16
0.00 0.00 0.00 0.00 0.00 0.01 0.01 0.01 0.01 0.00 0.01 0.02 0.01 0.01 0.04 0.08 0.08 0.12 0.17 0.13 0.07 0.12 0.08 0.09 0.15 0.18 0.17 0.19 0.16 0.22 0.30 0.29 0.36 0.58 0.72 0.62 0.37 0.23
0.00 0.00 0.00 0.00 0.00 0.01 0.01 0.02 0.01 0.01 0.00 0.02 0.05 0.04 0.04 0.10 0.15 0.14 0.21 0.23 0.17 0.11 0.11 0.13 0.13 0.15 0.21 0.20 0.23 0.28 0.19 0.21 0.22 0.19 0.25 0.46 0.73 0.72
0.00 0.00 0.00 0.00 0.00 0.00 0.01 0.02 0.01 0.01 0.02 0.03 0.07 0.10 0.10 0.09 0.21 0.30 0.28 0.33 0.37 0.28 0.17 0.08 0.08 0.13 0.14 0.16 0.20 0.21 0.27 0.23 0.20 0.20 0.18 0.22 0.31 0.46
0.00 0.00 0.00 0.00 0.00 0.00 0.00 0.01 0.02 0.02 0.04 0.06 0.16 0.21 0.23 0.24 0.17 0.35 0.45 0.32 0.34 0.45 0.54 0.33 0.14 0.11 0.21 0.27 0.23 0.22 0.19 0.17 0.24 0.27 0.25 0.25 0.31 0.31
0.00 0.00 0.00 0.00 0.00 0.00 0.00 0.00 0.00 0.01 0.03 0.07 0.09 0.20 0.30 0.36 0.35 0.24 0.33 0.53 0.46 0.38 0.36 0.53 0.55 0.43 0.25 0.24 0.30 0.23 0.22 0.25 0.18 0.20 0.27 0.27 0.30 0.34
0.00 0.00 0.00 0.00 0.00 0.00 0.00 0.00 0.00 0.00 0.01 0.03 0.08 0.09 0.16 0.26 0.30 0.36 0.33 0.38 0.52 0.44 0.37 0.36 0.38 0.52 0.61 0.48 0.31 0.30 0.30 0.22 0.20 0.19 0.18 0.22 0.23 0.27
0.00 0.00 0.00 0.00 0.00 0.00 0.00 0.00 0.00 0.00 0.00 0.00 0.02 0.04 0.03 0.04 0.12 0.17 0.21 0.24 0.25 0.28 0.27 0.34 0.34 0.36 0.33 0.37 0.44 0.37 0.31 0.34 0.29 0.22 0.20 0.17 0.16 0.18
0.00 0.00 0.00 0.00 0.00 0.00 0.00 0.00 0.00 0.00 0.00 0.00 0.00 0.00 0.01 0.01 0.01 0.05 0.10 0.13 0.17 0.16 0.15 0.20 0.22 0.25 0.30 0.24 0.16 0.21 0.25 0.23 0.29 0.31 0.22 0.17 0.16 0.13
0.00 0.00 0.00 0.00 0.00 0.00 0.00 0.00 0.00 0.00 0.00 0.00 0.00 0.00 0.00 0.00 0.01 0.01 0.01 0.03 0.04 0.06 0.07 0.09 0.09 0.11 0.15 0.15 0.09 0.05 0.09 0.11 0.13 0.17 0.27 0.24 0.15 0.14
0.01 0.01 0.00 0.00 0.00 0.00 0.00 0.00 0.00 0.00 0.00 0.00 0.00 0.00 0.00 0.00 0.00 0.00 0.00 0.01 0.01 0.01 0.01 0.02 0.03 0.03 0.03 0.03 0.02 0.01 0.02 0.03 0.05 0.07 0.08 0.16 0.20 0.17
0.00 0.00 0.00 0.00 0.00 0.00 0.00 0.00 0.00 0.00 0.00 0.00 0.00 0.00 0.00 0.00 0.00 0.00 0.00 0.00 0.00 0.00 0.00 0.00 0.01 0.01 0.01 0.01 0.01 0.01 0.01 0.01 0.01 0.01 0.03 0.05 0.06 0.11
0.00 0.00 0.00 0.00 0.00 0.00 0.00 0.00 0.00 0.00 0.00 0.00 0.00 0.00 0.00 0.00 0.00 0.00 0.00 0.00 0.00 0.00 0.00 0.00 0.00 0.00 0.00 0.00 0.00 0.00 0.00 0.00 0.00 0.00 0.00 0.01 0.02 0.02
0.00 0.00 0.00 0.00 0.00 0.00 0.00 0.00 0.00 0.00 0.00 0.00 0.00 0.00 0.00 0.00 0.00 0.00 0.00 0.00 0.00 0.00 0.00 0.00 0.00 0.00 0.00 0.00 0.00 0.00 0.00 0.00 0.00 0.00 0.00 0.00 0.00 0.00
0.00 0.00 0.00 0.00 0.00 0.00 0.00 0.00 0.01 0.00 0.00 0.00 0.00 0.00 0.00 0.00 0.00 0.00 0.00 0.00 0.00 0.00 0.00 0.00 0.00 0.00 0.00 0.00 0.00 0.00 0.00 0.00 0.00 0.00 0.00 0.00 0.00 0.00
0.00 0.00 0.00 0.00 0.00 0.00 0.00 0.00 0.00 0.00 0.00 0.00 0.00 0.00 0.00 0.00 0.00 0.00 0.00 0.00 0.00 0.00 0.00 0.00 0.00 0.00 0.00 0.00 0.00 0.00 0.00 0.00 0.00 0.00 0.00 0.00 0.00 0.00
0.00 0.00 0.00 0.00 0.00 0.00 0.00 0.00 0.00 0.00 0.00 0.00 0.00 0.00 0.00 0.00 0.00 0.00 0.00 0.00 0.00 0.00 0.00 0.00 0.00 0.00 0.00 0.00 0.00 0.00 0.00 0.00 0.00 0.00 0.00 0.00 0.00 0.00
0.00 0.00 0.00 0.00 0.00 0.00 0.00 0.00 0.01 0.01 0.01 0.01 0.01 0.00 0.00 0.00 0.00 0.00 0.00 0.00 0.00 0.00 0.00 0.00 0.00 0.00 0.00 0.00 0.00 0.00 0.00 0.00 0.00 0.00 0.00 0.00 0.00 0.00
0.00 0.00 0.00 0.00 0.00 0.00 0.00 0.00 0.01 0.01 0.01 0.00 0.01 0.00 0.00 0.00 0.00 0.00 0.00 0.00 0.00 0.00 0.00 0.00 0.00 0.00 0.00 0.00 0.00 0.00 0.00 0.00 0.00 0.00 0.00 0.00 0.00 0.00
0.00 0.00 0.00 0.00 0.00 0.00 0.00 0.00 0.01 0.01 0.01 0.00 0.00 0.00 0.00 0.00 0.00 0.00 0.00 0.00 0.00 0.00 0.00 0.00 0.00 0.00 0.00 0.00 0.00 0.00 0.00 0.00 0.00 0.00 0.00 0.00 0.00 0.00

GFSNE_prec_precacc12_174.txt.gz
Total_Precipitation_Accumulation
0.00 0.00 0.00 0.00 0.00 0.00 0.01 0.03 0.06 0.04 0.01 0.00 0.00 0.00 0.00 0.00 0.02 0.01 0.02 0.06 0.02 0.00 0.00 0.01 0.02 0.02 0.02 0.12 0.50 1.05 1.41 1.67 1.71 1.36 1.57 1.79 1.36 1.25
0.00 0.00 0.00 0.00 0.00 0.00 0.00 0.01 0.02 0.05 0.04 0.00 0.00 0.00 0.00 0.00 0.02 0.02 0.05 0.05 0.05 0.02 0.02 0.02 0.02 0.05 0.03 0.04 0.07 0.17 0.44 0.56 0.89 0.93 0.83 0.88 1.36 1.60
0.00 0.00 0.00 0.00 0.00 0.00 0.00 0.00 0.00 0.02 0.03 0.00 0.00 0.00 0.00 0.00 0.01 0.02 0.04 0.02 0.03 0.05 0.03 0.03 0.03 0.05 0.06 0.05 0.06 0.06 0.08 0.17 0.27 0.32 0.35 0.33 0.32 0.76
0.00 0.00 0.00 0.00 0.00 0.00 0.00 0.00 0.00 0.01 0.02 0.01 0.00 0.00 0.01 0.01 0.01 0.03 0.03 0.04 0.03 0.06 0.05 0.05 0.07 0.07 0.09 0.10 0.11 0.10 0.09 0.13 0.16 0.20 0.22 0.22 0.16 0.15
0.00 0.00 0.00 0.00 0.00 0.00 0.01 0.00 0.00 0.00 0.01 0.01 0.00 0.00 0.01 0.01 0.02 0.03 0.05 0.07 0.06 0.10 0.06 0.06 0.09 0.11 0.11 0.16 0.15 0.11 0.10 0.12 0.12 0.15 0.25 0.43 0.36 0.22
0.00 0.00 0.00 0.00 0.00 0.00 0.00 0.01 0.00 0.00 0.00 0.00 0.00 0.00 0.01 0.01 0.04 0.05 0.09 0.13 0.12 0.09 0.09 0.11 0.11 0.12 0.13 0.14 0.21 0.26 0.16 0.11 0.13 0.14 0.15 0.23 0.42 0.52
0.00 0.00 0.00 0.00 0.00 0.00 0.01 0.01 0.01 0.00 0.00 0.00 0.00 0.00 0.02 0.04 0.06 0.11 0.15 0.17 0.17 0.15 0.15 0.08 0.07 0.12 0.14 0.16 0.20 0.21 0.27 0.24 0.16 0.12 0.12 0.18 0.25 0.35
0.00 0.00 0.00 0.00 0.00 0.00 0.00 0.00 0.01 0.01 0.01 0.01 0.01 0.01 0.03 0.05 0.06 0.13 0.23 0.18 0.18 0.22 0.31 0.24 0.11 0.10 0.19 0.28 0.27 0.26 0.21 0.21 0.27 0.25 0.19 0.15 0.20 0.29
0.00 0.00 0.00 0.00 0.00 0.00 0.00 0.00 0.00 0.00 0.01 0.02 0.02 0.04 0.05 0.09 0.12 0.09 0.16 0.33 0.33 0.26 0.27 0.41 0.39 0.32 0.22 0.22 0.30 0.24 0.24 0.27 0.20 0.23 0.29 0.25 0.21 0.20
0.00 0.00 0.00 0.00 0.00 0.00 0.00 0.00 0.00 0.00 0.00 0.01 0.02 0.03 0.05 0.06 0.10 0.17 0.17 0.24 0.41 0.32 0.29 0.30 0.33 0.46 0.60 0.46 0.30 0.30 0.31 0.23 0.24 0.24 0.22 0.27 0.26 0.24
0.00 0.00 0.00 0.00 0.00 0.00 0.00 0.00 0.00 0.00 0.00 0.00 0.00 0.00 0.01 0.01 0.03 0.05 0.09 0.13 0.15 0.21 0.21 0.29 0.29 0.32 0.34 0.38 0.44 0.37 0.32 0.35 0.31 0.24 0.26 0.22 0.17 0.18
0.00 0.00 0.00 0.00 0.00 0.00 0.00 0.00 0.00 0.00 0.00 0.00 0.00 0.00 0.00 0.00 0.00 0.02 0.03 0.05 0.08 0.09 0.09 0.15 0.18 0.22 0.30 0.23 0.16 0.21 0.24 0.23 0.30 0.32 0.25 0.22 0.20 0.13
0.00 0.01 0.00 0.00 0.00 0.00 0.00 0.00 0.00 0.00 0.00 0.00 0.00 0.00 0.00 0.00 0.00 0.00 0.01 0.02 0.02 0.03 0.04 0.06 0.07 0.09 0.13 0.13 0.08 0.04 0.09 0.11 0.13 0.17 0.28 0.28 0.19 0.18
0.01 0.01 0.00 0.00 0.00 0.00 0.00 0.00 0.00 0.00 0.00 0.00 0.00 0.00 0.00 0.00 0.00 0.00 0.00 0.01 0.01 0.01 0.01 0.01 0.03 0.03 0.03 0.03 0.02 0.01 0.03 0.03 0.05 0.07 0.08 0.17 0.21 0.20
0.00 0.00 0.00 0.00 0.00 0.00 0.00 0.00 0.00 0.00 0.00 0.00 0.00 0.01 0.00 0.00 0.00 0.00 0.00 0.00 0.00 0.00 0.00 0.00 0.01 0.01 0.01 0.01 0.02 0.01 0.01 0.01 0.01 0.01 0.03 0.06 0.07 0.12
0.00 0.00 0.00 0.00 0.00 0.00 0.00 0.00 0.01 0.00 0.00 0.01 0.01 0.00 0.00 0.00 0.00 0.00 0.00 0.00 0.00 0.00 0.00 0.00 0.00 0.00 0.00 0.00 0.00 0.00 0.00 0.00 0.00 0.00 0.01 0.01 0.02 0.03
0.00 0.00 0.00 0.00 0.00 0.00 0.00 0.00 0.00 0.00 0.00 0.00 0.00 0.00 0.00 0.00 0.00 0.00 0.00 0.00 0.00 0.00 0.00 0.00 0.00 0.00 0.00 0.00 0.00 0.00 0.00 0.00 0.00 0.00 0.00 0.00 0.01 0.01
0.00 0.00 0.00 0.00 0.00 0.00 0.00 0.00 0.00 0.00 0.00 0.00 0.00 0.00 0.00 0.00 0.00 0.00 0.00 0.00 0.00 0.00 0.00 0.00 0.00 0.00 0.00 0.00 0.00 0.00 0.00 0.00 0.00 0.00 0.00 0.00 0.00 0.00
0.00 0.00 0.00 0.00 0.00 0.00 0.00 0.00 0.00 0.00 0.00 0.00 0.00 0.00 0.00 0.00 0.00 0.00 0.00 0.00 0.00 0.00 0.00 0.00 0.00 0.00 0.00 0.00 0.00 0.00 0.00 0.00 0.00 0.00 0.00 0.00 0.00 0.00
0.00 0.00 0.00 0.00 0.00 0.00 0.00 0.00 0.00 0.00 0.00 0.00 0.00 0.00 0.00 0.00 0.00 0.00 0.00 0.00 0.00 0.00 0.00 0.00 0.00 0.00 0.00 0.00 0.00 0.00 0.00 0.00 0.00 0.00 0.00 0.00 0.00 0.00
0.00 0.00 0.00 0.00 0.00 0.00 0.00 0.01 0.01 0.01 0.01 0.01 0.01 0.01 0.01 0.00 0.00 0.00 0.00 0.00 0.00 0.00 0.00 0.00 0.00 0.00 0.00 0.00 0.00 0.00 0.00 0.00 0.00 0.00 0.00 0.00 0.00 0.00
0.00 0.00 0.00 0.00 0.00 0.00 0.00 0.01 0.01 0.01 0.01 0.01 0.01 0.01 0.01 0.00 0.00 0.00 0.00 0.00 0.00 0.00 0.00 0.00 0.00 0.00 0.00 0.00 0.00 0.00 0.00 0.00 0.00 0.00 0.00 0.00 0.00 0.01
0.00 0.00 0.00 0.00 0.00 0.00 0.00 0.00 0.00 0.01 0.01 0.01 0.01 0.01 0.01 0.00 0.00 0.00 0.00 0.00 0.00 0.00 0.00 0.00 0.00 0.00 0.00 0.00 0.00 0.00 0.00 0.00 0.00 0.00 0.00 0.00 0.00 0.00